Location: Palau
(42.3086°N, 3.1507°E)
Time: 23:33:08
(UTC+00:00)

ATLAS CENTAUR R/B - Pass Details

Date: 26 May 2020
Orbit: 474 x 673 km, 64.7° (Epoch: 02 July)

Event Time Altitude Azimuth Distance (km) Brightness Sun altitude
Exits shadow 02:33:09 - 284° (WNW) 2,345 4.3 -15.5°
Reaches altitude 10° 02:35:41 10° 311° (NW) 1,881 4.0 -15.2°
Maximum altitude 02:36:35 11° 324° (NW) 1,830 4.1 -15.1°
Drops below altitude 10° 02:37:30 10° 336° (NNW) 1,855 4.3 -15.0°
Sets 02:41:34 0° 17° (NNE) 2,690 6.1 -14.5°
